Weather History for Adana Incirlik AFB, Turkey

Change the Weather History Date:

Sunday, December 22, 2013

  Actual Average Record
Temperature  
Mean Temperature 68 °F -  
Max Temperature 107 °F 60 °F 107 °F (2013)
Min Temperature 30 °F 43 °F 30 °F (2013)
Cooling Degree Days 4    
Growing Degree Days 18 (Base 50)    
Moisture  
Dew Point 22 °F    
Average Humidity 44    
Maximum Humidity 75    
Minimum Humidity 5    
Precipitation  
Precipitation 0.00 in - - ()
Sea Level Pressure  
Sea Level Pressure 30.31 in    
Wind  
Wind Speed 4 mph ()    
Max Wind Speed 9 mph    
Max Gust Speed -    
Visibility 6.8 miles    
Events      
Averages and records for this station are not official NWS values.
T = Trace of Precipitation, MM = Missing Value Source: Averaged Metar Reports

Daily Weather History Graph

Daily Weather History Graph

Search for Another Location

Airport:

Trip Planner

Search our weather history database for the weather conditions in past years. The results will help you decide how hot, cold, wet, or windy it might be!

Date:

Astronomy

Dec. 22, 2013 Rise Set
Actual Time 6:48 AM EET 4:25 PM EET
Civil Twilight 6:19 AM EET 4:54 PM EET
Nautical Twilight 5:46 AM EET 5:27 PM EET
Astronomical Twilight 5:14 AM EET 5:58 PM EET
Moon 9:12 PM EET (12/22) 9:40 AM EET (12/22)
Length of Visible Light 10h 35m
Length of Day
9h 37m
Waning Gibbous, 79% of the Moon is Illuminated
Dec 22
Waning Gibbous
Dec 25
Last Quarter
Jan 1
New
Jan 8
First Quarter
Jan 16
Full

Hourly Weather History & Observations

Time (EET) Temp. Windchill Dew Point Humidity Pressure Visibility Wind Dir Wind Speed Gust Speed Precip Events Conditions
12:20 AM 33.8 °F 29.6 °F 23.0 °F 65% 30.33 in - NNE 4.6 mph - N/A   Clear
12:50 AM 33.8 °F 29.6 °F 21.2 °F 60% 30.33 in - North 4.6 mph - N/A   Clear
1:20 AM 33.8 °F 28.6 °F 21.2 °F 60% 30.33 in - NE 5.8 mph - N/A   Clear
1:50 AM 35.6 °F 31.7 °F 21.2 °F 56% 30.33 in - NNE 4.6 mph - N/A   Clear
2:00 AM 35 °F - 22 °F 46% 30.35 in 6 mi NNE 4.6 mph - -  
2:20 AM 30.2 °F 24.3 °F 23.0 °F 75% 30.33 in - NNE 5.8 mph - N/A   Clear
2:50 AM 32.0 °F - 21.2 °F 64% 30.33 in - NNE 2.3 mph - N/A   Clear
3:20 AM 33.8 °F 30.8 °F 21.2 °F 60% 30.33 in - North 3.5 mph - N/A   Clear
3:50 AM 32.0 °F 27.5 °F 21.2 °F 64% 30.30 in - NE 4.6 mph - N/A   Clear
4:20 AM 32.0 °F - 21.2 °F 64% 30.30 in - North 2.3 mph - N/A   Clear
4:50 AM 33.8 °F - 21.2 °F 60% 30.33 in - NNE 2.3 mph - N/A   Clear
5:00 AM 34 °F - 22 °F 50% 30.31 in 6 mi NNE 2.3 mph - -  
5:20 AM 32.0 °F 28.7 °F 21.2 °F 64% 30.33 in - NNE 3.5 mph - N/A   Clear
5:50 AM 32.0 °F - 23.0 °F 69% 30.33 in - NNE 2.3 mph - N/A   Clear
6:20 AM 32.0 °F 26.4 °F 23.0 °F 69% 30.33 in - NE 5.8 mph - N/A   Clear
6:50 AM 32.0 °F 26.4 °F 23.0 °F 69% 30.33 in - NE 5.8 mph - N/A   Clear
7:20 AM 32.0 °F 28.7 °F 24.8 °F 75% 30.33 in - NE 3.5 mph - N/A   Clear
7:50 AM 35.6 °F 32.8 °F 26.6 °F 70% 30.36 in - NNE 3.5 mph - N/A   Clear
8:00 AM 35 °F - 26 °F 61% 30.37 in 12 mi NNE 3.5 mph - -  
8:20 AM 41.0 °F - 24.8 °F 53% 30.36 in - Calm Calm - N/A   Clear
8:50 AM 44.6 °F 43.1 °F 26.6 °F 49% 30.36 in - NW 3.5 mph - N/A   Clear
9:20 AM 50.0 °F - 26.6 °F 40% 30.36 in - NNW 2.3 mph - N/A   Clear
9:50 AM 55.4 °F - 26.6 °F 33% 30.36 in - North 2.3 mph - N/A   Clear
10:20 AM 57.2 °F - 26.6 °F 31% 30.36 in - SSE 2.3 mph - N/A   Clear
10:50 AM 60.8 °F - 26.6 °F 27% 30.33 in - South 2.3 mph - N/A   Clear
11:00 AM 60 °F - 26 °F 17% 30.34 in 6 mi South 2.3 mph - -  
11:20 AM 62.6 °F - 23.0 °F 22% 30.33 in - SSW 3.5 mph - N/A   Clear
11:50 AM 62.6 °F - 21.2 °F 20% 30.30 in - WSW 2.3 mph - N/A   Clear
12:20 PM 62.6 °F - 19.4 °F 19% 30.30 in - West 3.5 mph - N/A   Clear
12:50 PM 64.4 °F - 19.4 °F 18% 30.30 in - WSW 4.6 mph - N/A   Clear
1:20 PM 64.4 °F - 15.8 °F 15% 30.27 in - West 2.3 mph - N/A   Clear
1:50 PM 64.4 °F - 17.6 °F 16% 30.27 in - South 2.3 mph - N/A   Clear
2:00 PM 65 °F - 17 °F 7% 30.28 in 6 mi South 2.3 mph - -  
2:20 PM 66.2 °F - 19.4 °F 17% 30.27 in - WSW 2.3 mph - N/A   Clear
2:50 PM 64.4 °F - 21.2 °F 19% 30.27 in - West 3.5 mph - N/A   Clear
3:20 PM 64.4 °F - 21.2 °F 19% 30.27 in - West 3.5 mph - N/A   Clear
3:50 PM 62.6 °F - 21.2 °F 20% 30.27 in - Calm Calm - N/A   Clear
4:20 PM 59.0 °F - 23.0 °F 25% 30.27 in - South 2.3 mph - N/A   Clear
4:50 PM 57.2 °F - 23.0 °F 27% 30.27 in - SSW 3.5 mph - N/A   Clear
5:00 PM 56 °F - 23 °F 16% 30.28 in 6 mi SSW 3.5 mph - -  
5:20 PM 53.6 °F - 21.2 °F 28% 30.27 in - Calm Calm - N/A   Clear
5:50 PM 46.4 °F - 23.0 °F 40% 30.30 in - South 2.3 mph - N/A   Clear
6:20 PM 39.2 °F 34.2 °F 23.0 °F 52% 30.30 in - ENE 6.9 mph - N/A   Clear
6:50 PM 39.2 °F 33.0 °F 24.8 °F 56% 30.30 in - NNE 9.2 mph - N/A   Clear
7:20 PM 37.4 °F 31.4 °F 21.2 °F 52% 30.30 in - NE 8.1 mph - N/A   Clear
7:50 PM 39.2 °F 33.0 °F 21.2 °F 49% 30.30 in - NE 9.2 mph - N/A   Clear
8:00 PM 40 °F - 22 °F 34% 30.33 in 6 mi NE 9.2 mph - -  
8:20 PM 107.6 °F - 21.2 °F 5% 30.30 in - ENE 8.1 mph - N/A   Clear
8:50 PM 37.4 °F 32.1 °F 23.0 °F 56% 30.30 in - NE 6.9 mph - N/A   Clear
9:20 PM 35.6 °F 29.9 °F 21.2 °F 56% 30.30 in - North 6.9 mph - N/A   Clear
9:50 PM 35.6 °F 28.6 °F 21.2 °F 56% 30.30 in - NE 9.2 mph - N/A   Clear
10:20 PM 35.6 °F 32.8 °F 21.2 °F 56% 30.30 in - North 3.5 mph - N/A   Clear
10:50 PM 33.8 °F 27.7 °F 21.2 °F 60% 30.30 in - NNE 6.9 mph - N/A   Clear
11:00 PM 33 °F - 21 °F 50% 30.32 in 6 mi NNE 6.9 mph - -  
11:20 PM 35.6 °F 30.7 °F 21.2 °F 56% 30.30 in - NE 5.8 mph - N/A   Clear
11:50 PM 35.6 °F 32.8 °F 21.2 °F 56% 30.30 in - NNW 3.5 mph - N/A   Clear